Theta_e
336 339 341 342 338 346 347 349 351 351 349 350 349 350 350 350 350 348 348 349 347 347 346 347 345 352 349 351 352 350 346 347 350 350 348 348 349 351 344 350 349 350 350
338 340 344 344 336 343 348 350 350 351 351 351 349 351 350 352 350 351 350 349 350 348 348 346 348 348 347 348 347 349 349 346 347 352 351 351 347 349 349 348 350 350 351
347 344 346 348 344 341 348 353 352 351 351 349 352 354 352 350 350 350 350 350 346 349 351 352 349 350 346 347 349 351 351 349 348 349 351 351 347 347 347 346 349 351 351
350 351 350 350 348 350 352 352 348 352 346 355 354 353 349 350 351 350 348 339 342 350 352 353 350 349 350 350 349 351 351 353 349 348 349 350 350 350 347 347 347 344 349
348 349 350 351 350 355 355 354 352 353 353 351 354 353 352 349 351 336 344 348 348 347 349 351 352 353 348 350 350 348 350 353 352 350 348 347 347 349 350 349 348 346 347
348 348 349 352 356 356 356 356 356 357 356 356 351 351 351 350 349 347 348 350 351 351 352 351 343 349 350 350 351 352 350 349 349 348 348 349 349 348 349 349 348 346 348
351 350 351 354 356 356 357 357 356 355 353 354 354 354 354 353 349 350 351 352 351 350 349 350 351 351 349 351 351 350 350 350 350 349 349 350 349 348 349 349 349 347 347
350 352 352 353 353 356 357 358 352 351 353 354 355 355 352 353 351 350 351 350 350 349 348 350 351 351 350 348 349 349 349 350 351 351 351 350 349 349 350 349 349 350 348
351 354 355 355 356 356 356 354 355 356 355 353 353 352 352 351 351 350 350 349 349 347 345 341 337 342 344 345 344 347 347 348 348 348 349 348 349 348 348 349 350 351 351
353 356 356 357 357 356 356 355 354 354 352 351 349 348 346 342 334 334 332 327 322 320 317 316 316 316 316 319 333 340 341 344 344 344 345 346 347 348 348 349 350 349 349
355 355 356 355 355 354 353 351 339 334 331 338 341 340 333 325 325 327 324 319 319 319 319 321 322 321 320 321 319 324 330 333 335 338 341 343 344 345 346 348 349 349 349
354 355 354 352 348 337 335 334 332 329 325 319 323 328 326 325 328 326 324 320 320 321 324 327 327 328 329 328 329 329 327 328 330 334 336 337 340 344 346 346 346 348 349
347 344 341 335 335 335 334 332 331 326 322 322 323 325 324 326 326 324 321 322 324 329 331 331 332 333 332 333 333 331 330 329 330 331 333 334 337 340 343 343 344 344 345
343 339 335 334 334 334 333 330 328 324 322 318 320 321 321 317 318 318 320 319 323 331 331 332 332 332 330 331 331 332 330 326 324 323 322 322 322 323 338 338 340 342 339
340 335 334 335 335 335 334 329 327 325 323 319 319 321 318 318 319 320 316 317 321 327 329 330 330 329 329 329 327 326 326 325 324 327 329 330 329 326 336 337 338 338 339
338 335 335 336 335 336 333 330 329 328 324 319 317 319 320 318 321 317 316 318 322 331 323 324 328 329 330 329 326 327 327 327 330 331 332 332 331 331 332 334 336 337 340
339 336 337 337 337 336 333 333 332 330 325 320 318 317 317 316 315 316 317 319 325 328 329 329 328 328 328 326 328 328 328 329 330 333 333 332 333 334 330 331 334 333 334
340 336 337 338 339 339 339 339 335 332 324 320 319 318 316 313 316 317 319 322 326 325 328 328 328 328 328 326 325 325 325 327 329 331 332 332 332 333 333 332 332 331 332
342 338 337 338 342 343 342 340 335 327 324 321 321 318 312 312 315 319 322 323 325 324 327 327 326 327 327 327 324 323 323 324 324 330 330 330 331 332 332 332 332 331 330
343 338 339 341 343 343 342 341 333 326 325 324 324 315 311 311 315 321 322 324 322 318 324 325 324 325 327 324 324 322 321 321 322 323 328 329 328 330 330 331 331 331 332
343 340 342 343 344 343 342 339 329 329 326 325 319 311 311 313 318 321 322 319 316 321 324 325 325 325 325 324 323 321 320 317 318 320 322 324 327 328 329 330 331 330 330
346 345 345 345 343 342 337 332 330 327 325 323 313 313 315 315 312 312 319 323 322 318 321 322 323 322 320 320 319 319 318 313 317 319 320 325 327 328 329 329 329 329 330
346 345 344 341 338 336 333 330 328 326 324 317 313 316 321 317 317 316 321 324 325 324 314 316 320 320 319 317 316 314 308 313 318 320 321 323 325 326 327 327 327 326 327
344 342 341 338 336 335 332 327 326 325 320 313 312 314 316 318 319 318 320 323 325 320 316 313 307 304 303 304 306 305 305 311 317 320 321 322 321 322 323 323 322 321 321
339 339 337 336 336 334 331 327 322 320 316 312 315 319 321 321 319 318 319 317 318 317 316 314 313 311 307 304 304 304 305 309 314 317 318 317 318 319 318 318 316 316 316
338 337 336 335 333 332 331 327 323 321 318 314 319 321 321 319 317 318 319 317 316 315 315 314 314 313 311 306 304 304 310 313 314 316 314 313 313 314 313 313 312 313 313
Wind_Speed
20 27 27 13 4 11 18 18 14 20 13 11 14 13 11 8 8 7 5 5 3 5 4 1 3 5 7 5 11 8 4 6 6 9 6 7 8 12 12 14 18 19 18
31 27 31 26 20 12 18 21 22 18 14 13 10 10 5 9 8 9 8 9 8 3 4 4 5 7 6 9 7 10 8 9 8 10 13 11 14 7 7 12 9 10 13
28 33 34 23 16 30 22 24 24 18 15 13 11 11 11 9 9 7 8 9 16 7 5 6 6 8 10 12 8 13 12 9 10 9 7 5 4 11 6 7 9 15 18
19 18 34 30 22 27 27 23 15 14 16 18 13 10 6 9 8 9 10 7 2 5 7 9 8 7 10 12 12 13 13 14 12 11 12 9 11 11 11 8 11 13 18
14 21 21 22 28 26 24 24 15 11 11 15 13 8 9 5 3 10 4 9 9 7 7 8 8 11 12 11 15 13 17 19 20 17 18 20 18 18 18 22 15 14 15
17 15 21 28 29 28 25 18 15 16 14 13 12 11 10 3 3 2 4 3 2 3 4 5 7 7 10 12 14 15 15 17 18 18 17 17 19 18 17 20 20 21 20
24 25 24 26 27 23 20 15 9 11 13 11 7 5 7 7 5 4 5 3 6 8 7 7 8 5 7 8 9 11 12 12 13 16 17 17 19 18 20 21 22 22 22
17 19 18 20 22 20 18 14 8 10 10 7 7 8 7 7 7 9 8 4 5 10 14 12 10 11 11 11 11 10 10 10 12 14 16 19 20 19 20 19 20 22 25
18 24 24 21 18 20 19 13 10 9 7 4 4 4 5 6 5 8 12 14 13 14 14 16 14 14 15 13 14 14 12 12 12 13 15 17 18 18 20 23 24 22 26
23 18 18 17 16 17 16 13 10 8 6 5 6 6 6 4 3 6 8 11 13 13 14 14 13 13 12 13 16 17 16 15 15 14 13 14 16 19 20 20 20 22 22
20 17 16 21 20 15 12 10 10 10 5 3 3 5 6 5 5 9 10 10 9 9 9 10 10 11 11 11 12 13 15 17 16 16 16 16 15 16 16 18 19 23 25
22 26 25 21 16 16 15 14 10 6 4 4 2 2 3 1 6 10 10 10 10 9 8 9 9 9 9 9 9 9 11 13 13 14 15 16 17 15 14 17 18 18 21
25 21 19 19 22 22 18 14 10 7 5 3 2 3 5 5 7 9 9 8 7 6 8 7 8 10 10 10 11 11 12 12 14 16 19 20 20 19 17 17 18 17 18
27 25 24 24 23 19 16 14 11 6 4 1 3 4 5 5 7 8 9 8 4 2 4 5 6 7 8 8 10 13 15 15 15 15 17 19 20 19 19 18 20 17 18
32 31 30 27 24 19 16 11 8 4 3 2 3 6 6 6 7 9 9 7 4 3 4 4 4 5 11 12 13 10 10 12 12 9 9 10 12 14 11 15 19 21 21
34 33 32 28 24 20 17 12 8 4 1 1 3 5 5 6 7 9 7 4 2 5 6 5 6 10 8 12 13 12 11 10 10 11 11 12 12 5 14 16 16 14 18
37 36 32 28 23 21 16 12 8 4 2 3 4 7 6 8 8 9 8 6 6 8 7 8 8 9 10 13 12 12 11 7 6 10 12 14 12 13 14 16 18 18 19
40 36 32 27 21 18 14 13 10 6 4 3 5 8 7 7 8 7 7 7 6 5 3 5 8 10 12 10 12 14 13 11 10 8 8 10 13 14 14 15 16 16 13
38 35 31 26 21 20 19 15 12 8 4 4 8 9 8 8 7 5 5 5 7 3 3 2 5 9 11 12 16 19 17 14 10 4 6 11 14 14 13 14 14 13 10
35 33 30 27 26 24 20 14 12 7 4 6 9 10 8 5 4 3 3 5 9 9 3 5 7 8 11 14 17 20 24 20 14 8 7 11 14 14 13 11 10 10 10
32 29 27 27 26 22 17 13 9 6 8 9 11 8 7 5 5 6 6 9 7 7 8 10 9 8 10 13 16 20 23 22 18 15 14 11 11 11 11 11 11 11 10
31 30 30 25 20 14 11 11 10 10 10 10 8 6 6 5 4 5 4 3 5 7 9 7 4 4 9 12 17 20 22 19 15 14 14 13 11 11 10 13 11 11 11
28 28 24 21 15 11 12 10 9 10 10 10 7 5 7 7 6 8 2 6 4 9 12 9 10 9 16 18 18 20 16 12 11 12 9 9 8 10 9 12 15 14 12
18 17 15 16 13 11 11 11 10 12 11 8 6 5 4 2 6 9 4 5 4 12 12 13 11 10 10 15 14 13 11 9 7 6 7 7 10 10 10 9 10 10 11
14 16 18 14 9 8 8 8 11 10 8 5 2 3 2 5 5 7 3 7 11 11 11 13 13 14 13 12 12 11 10 9 8 4 7 9 11 8 10 8 9 10 12
15 15 12 9 8 9 9 9 9 10 8 6 4 6 5 5 9 8 6 8 11 11 10 10 10 13 16 13 10 7 5 9 8 8 12 14 13 11 11 9 9 7 10
Wind_Direction
167 171 181 129 163 175 182 172 162 159 176 194 205 203 216 259 256 249 243 277 237 228 208 248 279 270 260 261 289 301 270 272 287 292 335 342 314 244 280 248 247 252 247
166 161 165 155 45 190 191 175 178 188 199 213 179 211 213 257 267 260 282 288 281 284 314 274 311 295 289 242 243 281 285 283 262 302 288 313 310 267 307 279 295 249 250
173 164 173 175 131 159 174 184 182 192 204 162 207 222 219 247 248 261 253 273 261 243 246 294 264 287 276 289 279 267 272 286 253 279 260 300 261 295 275 314 295 268 259
169 161 196 200 177 158 165 177 167 178 178 187 194 206 216 239 276 289 314 292 17 220 222 250 266 267 284 277 271 265 268 268 268 270 268 267 281 294 295 295 283 277 248
140 146 159 177 172 154 158 175 174 172 158 192 207 213 218 242 344 359 334 303 306 308 241 266 279 282 285 270 272 259 260 268 274 272 272 275 275 271 277 284 286 277 285
139 143 132 155 156 160 163 166 174 180 189 191 203 224 241 227 271 318 276 260 296 329 22 231 274 321 312 285 275 275 276 267 273 277 280 274 280 276 277 279 281 284 288
132 134 129 132 148 155 164 171 169 190 196 208 217 231 249 258 244 283 281 260 245 270 297 281 278 281 270 276 271 271 272 275 276 278 280 278 276 277 276 269 274 279 283
127 130 144 142 148 152 156 155 139 125 126 152 191 224 235 250 274 273 267 255 276 295 301 295 278 272 271 272 280 278 278 270 275 283 289 290 289 279 275 276 276 280 280
132 138 148 154 148 156 161 159 148 146 159 195 232 280 266 270 285 293 288 297 294 289 288 290 283 273 266 266 273 274 273 272 282 282 293 296 285 280 276 274 276 275 283
146 141 139 134 139 148 151 157 149 155 169 208 214 237 260 290 301 274 288 292 293 294 292 293 291 288 285 273 264 267 272 275 276 284 298 301 298 291 290 277 272 269 276
146 155 152 142 141 149 148 145 141 152 150 165 217 246 277 302 290 304 309 309 313 317 320 322 324 319 314 303 286 276 277 277 279 277 283 285 293 298 298 293 286 274 274
157 152 158 155 150 141 133 131 134 134 108 102 126 341 337 257 285 306 321 323 331 342 342 345 349 353 358 350 327 305 293 286 285 283 278 282 283 288 302 305 299 286 280
153 156 159 150 147 150 154 155 146 119 101 85 343 287 268 270 281 298 308 321 338 9 1 359 5 1 332 344 331 325 320 311 301 292 286 285 284 281 292 301 308 300 295
166 164 166 160 164 170 171 164 161 154 124 106 314 322 311 307 293 311 325 324 319 345 353 1 353 348 326 320 304 310 312 309 309 303 294 289 281 277 278 289 292 300 307
168 170 169 170 174 180 180 179 169 149 102 96 307 321 320 315 316 325 325 322 321 271 298 288 308 318 303 295 313 330 330 332 334 342 349 344 328 283 287 302 298 297 291
173 176 177 181 189 194 191 186 182 173 144 9 304 310 320 308 326 323 329 326 345 357 357 359 341 358 350 334 347 354 353 359 16 10 360 355 353 335 301 292 295 300 301
180 181 184 192 200 201 195 191 198 214 289 332 320 312 320 310 318 321 330 9 19 11 4 1 347 350 345 357 10 4 1 350 354 357 348 347 328 309 305 293 299 302 291
182 185 189 195 201 200 194 200 211 226 259 295 307 314 318 312 320 335 4 13 10 344 352 12 342 327 342 5 6 5 1 352 345 319 329 332 321 318 310 303 296 303 301
185 189 191 192 191 191 197 206 214 232 265 286 292 307 314 311 323 333 349 13 328 343 200 339 311 322 337 343 352 350 350 347 358 303 312 327 315 319 316 318 313 309 306
185 182 181 181 185 190 202 216 222 234 257 270 293 302 310 313 334 350 358 331 319 5 46 28 9 342 332 334 339 343 340 338 338 335 306 320 323 328 332 324 325 327 327
176 175 183 189 193 197 211 219 212 227 253 274 295 308 323 338 302 313 309 327 16 63 45 2 15 347 316 321 328 333 337 337 334 331 326 322 314 324 325 319 330 334 326
157 173 179 181 190 196 210 196 205 236 258 282 288 302 321 345 342 338 44 49 31 32 13 18 32 347 324 323 322 325 330 330 322 325 331 355 355 356 340 327 337 336 315
157 163 171 172 178 187 204 211 229 256 276 284 285 289 303 329 11 14 70 31 348 338 335 307 285 294 301 301 308 320 324 328 331 339 341 345 345 332 326 326 325 328 327
153 163 186 193 188 204 220 221 239 263 277 273 274 284 291 353 16 11 15 5 292 326 337 347 341 325 304 309 316 326 334 335 350 8 356 335 351 350 344 353 3 1 1
145 176 186 193 216 236 243 247 258 271 276 266 289 12 26 346 328 324 314 335 313 318 328 344 352 353 343 332 330 337 351 3 8 12 354 342 327 351 7 12 11 11 2
175 183 180 189 208 234 260 273 264 275 279 258 213 313 279 279 298 312 265 306 303 311 316 328 333 351 354 348 343 345 17 27 26 26 18 16 26 26 17 7 354 338 337